When you browse on this site, cookies collect data to enhance your experience and personalize the content and advertising you see.
Visit our Privacy Policy to learn more. By continuing to use the site, you agree to this use of cookies and data.
  • In Latvia
  • List of Countries
  • For 7 days
  • Water Temperature
  • Satellite Maps
  • Weather Map
  • Weather Widgets
  • user-avatar
    Login

    Hourly Weather Rokietnica

    Today, 22 May, Wednesday

    Time Temperature Precipitation Wind Pressure Humidity
    00:00 +11°C° 1.3 mm 6 mps 731 mmHg 93%
    01:00 +11°C° 1.3 mm 6 mps 731 mmHg 93%
    02:00 +12°C° 0 mm 4 mps 730 mmHg 94%
    03:00 +12°C° 0.8 mm 5 mps 730 mmHg 94%
    04:00 +12°C° 0.8 mm 5 mps 731 mmHg 93%
    05:00 +12°C° 0.8 mm 5 mps 731 mmHg 93%
    06:00 +12°C° 1.1 mm 5 mps 731 mmHg 93%
    07:00 +12°C° 1.1 mm 5 mps 731 mmHg 93%
    08:00 +12°C° 0 mm 5 mps 730 mmHg 93%
    09:00 +14°C° 0.1 mm 6 mps 731 mmHg 87%
    10:00 +15°C° 0.1 mm 6 mps 731 mmHg 82%
    11:00 +16°C° 0.1 mm 7 mps 732 mmHg 77%
    12:00 +17°C° 0.3 mm 7 mps 732 mmHg 76%
    13:00 +17°C° 0.3 mm 6 mps 732 mmHg 76%
    14:00 +17°C° 0.3 mm 6 mps 732 mmHg 75%
    15:00 +17°C° 0.5 mm 6 mps 732 mmHg 77%
    16:00 +17°C° 0.5 mm 5 mps 732 mmHg 78%
    17:00 +18°C° 0.5 mm 4 mps 731 mmHg 79%
    18:00 +17°C° 0.6 mm 4 mps 731 mmHg 83%
    19:00 +16°C° 0.6 mm 3 mps 731 mmHg 86%
    20:00 +14°C° 0.6 mm 3 mps 731 mmHg 90%
    21:00 +13°C° 0 mm 3 mps 732 mmHg 92%
    22:00 +13°C° 0 mm 2 mps 732 mmHg 93%
    23:00 +12°C° 0 mm 2 mps 732 mmHg 94%

    Tomorrow, 23 May, Thursday

    Time Temperature Precipitation Wind Pressure Humidity
    00:00 +12°C° 0 mm 2 mps 732 mmHg 94%
    01:00 +12°C° 0 mm 2 mps 733 mmHg 95%
    02:00 +12°C° 0 mm 2 mps 733 mmHg 95%
    03:00 +12°C° 0.1 mm 2 mps 733 mmHg 95%
    04:00 +13°C° 0.1 mm 2 mps 733 mmHg 95%
    05:00 +13°C° 0.1 mm 1 mps 733 mmHg 96%
    06:00 +14°C° 0 mm 1 mps 733 mmHg 94%
    07:00 +14°C° 0 mm 1 mps 734 mmHg 93%
    08:00 +15°C° 0 mm 1 mps 734 mmHg 92%
    09:00 +16°C° 0.4 mm 1 mps 734 mmHg 90%
    10:00 +16°C° 0.4 mm 1 mps 734 mmHg 88%
    11:00 +18°C° 0.4 mm 1 mps 735 mmHg 86%
    12:00 +19°C° 1.5 mm 1 mps 735 mmHg 83%
    13:00 +20°C° 1.5 mm 1 mps 735 mmHg 80%
    14:00 +21°C° 1.5 mm 1 mps 735 mmHg 76%
    15:00 +19°C° 1.5 mm 2 mps 735 mmHg 79%
    16:00 +19°C° 1.5 mm 3 mps 735 mmHg 81%
    17:00 +19°C° 1.5 mm 4 mps 735 mmHg 83%
    18:00 +18°C° 0.4 mm 4 mps 735 mmHg 87%
    19:00 +15°C° 0.4 mm 4 mps 735 mmHg 90%
    20:00 +14°C° 0.4 mm 5 mps 735 mmHg 93%
    21:00 +14°C° 0.7 mm 4 mps 736 mmHg 95%
    22:00 +14°C° 0.7 mm 4 mps 736 mmHg 96%
    23:00 +14°C° 0.7 mm 4 mps 736 mmHg 97%

    Day after tomorrow, 24 May, Friday

    Time Temperature Precipitation Wind Pressure Humidity
    00:00 +13°C° 0.4 mm 3 mps 736 mmHg 97%
    01:00 +13°C° 0.4 mm 3 mps 736 mmHg 98%
    02:00 +13°C° 0.4 mm 3 mps 736 mmHg 98%
    03:00 +13°C° 0.5 mm 3 mps 736 mmHg 98%
    04:00 +13°C° 0.5 mm 3 mps 736 mmHg 98%
    05:00 +13°C° 0.5 mm 3 mps 736 mmHg 98%
    06:00 +14°C° 0.4 mm 3 mps 736 mmHg 97%
    07:00 +14°C° 0.4 mm 3 mps 736 mmHg 96%
    08:00 +14°C° 0.4 mm 4 mps 736 mmHg 95%
    09:00 +14°C° 0.2 mm 4 mps 736 mmHg 94%
    10:00 +15°C° 0.2 mm 4 mps 737 mmHg 93%
    11:00 +15°C° 0.2 mm 4 mps 737 mmHg 92%
    12:00 +15°C° 0.1 mm 4 mps 736 mmHg 91%
    13:00 +15°C° 0.1 mm 4 mps 736 mmHg 89%
    14:00 +17°C° 0.1 mm 4 mps 736 mmHg 88%
    15:00 +17°C° 0.1 mm 4 mps 736 mmHg 87%
    16:00 +17°C° 0.1 mm 3 mps 736 mmHg 87%
    17:00 +17°C° 0.1 mm 3 mps 735 mmHg 86%
    18:00 +16°C° 0 mm 3 mps 735 mmHg 88%
    19:00 +16°C° 0 mm 2 mps 735 mmHg 89%
    20:00 +16°C° 0 mm 1 mps 735 mmHg 91%
    21:00 +15°C° 0 mm 2 mps 736 mmHg 91%
    22:00 +15°C° 0 mm 2 mps 736 mmHg 92%
    23:00 +14°C° 0 mm 2 mps 736 mmHg 93%

    25 May, Saturday

    Time Temperature Precipitation Wind Pressure Humidity
    00:00 +14°C° 0 mm 2 mps 736 mmHg 93%
    01:00 +14°C° 0 mm 2 mps 735 mmHg 94%
    02:00 +13°C° 0 mm 2 mps 735 mmHg 95%
    03:00 +13°C° 0 mm 2 mps 735 mmHg 95%
    04:00 +13°C° 0 mm 2 mps 736 mmHg 95%
    05:00 +12°C° 0 mm 2 mps 736 mmHg 95%
    06:00 +13°C° 0 mm 2 mps 736 mmHg 92%
    07:00 +14°C° 0 mm 2 mps 736 mmHg 90%
    08:00 +15°C° 0 mm 2 mps 736 mmHg 87%
    09:00 +17°C° 0 mm 3 mps 736 mmHg 79%
    10:00 +18°C° 0 mm 3 mps 736 mmHg 72%
    11:00 +20°C° 0 mm 3 mps 737 mmHg 64%
    12:00 +20°C° 0.1 mm 3 mps 736 mmHg 63%
    13:00 +21°C° 0.1 mm 3 mps 736 mmHg 63%
    14:00 +21°C° 0.1 mm 3 mps 736 mmHg 62%
    15:00 +21°C° 0.4 mm 3 mps 736 mmHg 66%
    16:00 +21°C° 0.4 mm 3 mps 736 mmHg 70%
    17:00 +20°C° 0.4 mm 3 mps 736 mmHg 74%
    18:00 +19°C° 0.2 mm 3 mps 736 mmHg 78%
    19:00 +18°C° 0.2 mm 3 mps 736 mmHg 82%
    20:00 +16°C° 0.2 mm 2 mps 736 mmHg 85%
    21:00 +15°C° 0 mm 2 mps 736 mmHg 87%
    22:00 +15°C° 0 mm 2 mps 736 mmHg 89%
    23:00 +14°C° 0 mm 2 mps 736 mmHg 91%

    26 May, Sunday

    Time Temperature Precipitation Wind Pressure Humidity
    00:00 +13°C° 0 mm 2 mps 736 mmHg 92%
    01:00 +13°C° 0 mm 2 mps 736 mmHg 93%
    02:00 +12°C° 0 mm 2 mps 736 mmHg 94%
    03:00 +12°C° 0 mm 2 mps 736 mmHg 94%
    04:00 +12°C° 0 mm 2 mps 736 mmHg 94%
    05:00 +10°C° 0 mm 2 mps 736 mmHg 94%
    06:00 +13°C° 0 mm 2 mps 736 mmHg 90%
    07:00 +15°C° 0 mm 2 mps 737 mmHg 86%
    08:00 +18°C° 0 mm 1 mps 737 mmHg 82%
    09:00 +18°C° 0.5 mm 2 mps 736 mmHg 80%
    10:00 +19°C° 0.5 mm 2 mps 736 mmHg 79%
    11:00 +20°C° 0.5 mm 3 mps 736 mmHg 77%
    12:00 +20°C° 1.2 mm 3 mps 736 mmHg 79%
    13:00 +20°C° 1.2 mm 4 mps 736 mmHg 80%
    14:00 +20°C° 1.2 mm 4 mps 735 mmHg 82%
    15:00 +19°C° 1.7 mm 4 mps 735 mmHg 84%
    16:00 +18°C° 1.7 mm 3 mps 735 mmHg 86%
    17:00 +17°C° 1.7 mm 3 mps 735 mmHg 89%
    18:00 +17°C° 0.3 mm 3 mps 735 mmHg 89%
    19:00 +16°C° 0.3 mm 2 mps 735 mmHg 90%
    20:00 +15°C° 0.3 mm 2 mps 735 mmHg 90%
    21:00 +14°C° 0 mm 2 mps 736 mmHg 89%
    22:00 +13°C° 0 mm 2 mps 736 mmHg 88%
    23:00 +12°C° 0 mm 1 mps 737 mmHg 87%

    27 May, Monday

    Time Temperature Precipitation Wind Pressure Humidity
    00:00 +10°C° 0 mm 2 mps 737 mmHg 87%
    01:00 +10°C° 0 mm 2 mps 737 mmHg 87%
    02:00 +9°C° 0 mm 2 mps 737 mmHg 88%
    03:00 +9°C° 0 mm 2 mps 737 mmHg 89%
    04:00 +8°C° 0 mm 2 mps 738 mmHg 91%
    05:00 +8°C° 0 mm 2 mps 738 mmHg 92%
    06:00 +9°C° 0 mm 2 mps 738 mmHg 88%
    07:00 +12°C° 0 mm 2 mps 738 mmHg 83%
    08:00 +14°C° 0 mm 2 mps 738 mmHg 78%
    09:00 +15°C° 0 mm 2 mps 738 mmHg 73%
    10:00 +18°C° 0 mm 1 mps 738 mmHg 68%
    11:00 +20°C° 0 mm 1 mps 738 mmHg 63%
    12:00 +20°C° 0 mm 1 mps 738 mmHg 61%
    13:00 +21°C° 0 mm 1 mps 738 mmHg 58%
    14:00 +22°C° 0 mm 1 mps 737 mmHg 56%
    15:00 +21°C° 0 mm 2 mps 737 mmHg 59%
    16:00 +21°C° 0 mm 2 mps 736 mmHg 63%
    17:00 +20°C° 0 mm 3 mps 736 mmHg 67%
    18:00 +19°C° 0 mm 3 mps 735 mmHg 72%
    19:00 +18°C° 0 mm 3 mps 735 mmHg 78%
    20:00 +17°C° 0 mm 3 mps 735 mmHg 84%
    21:00 +17°C° 0.3 mm 3 mps 735 mmHg 87%
    22:00 +16°C° 0.3 mm 3 mps 734 mmHg 90%
    23:00 +16°C° 0.3 mm 3 mps 734 mmHg 93%
    Show more